User: anonymous   Login
Location: Unspecified
(0.0000°N, 0.0000°E)
Time: 09:09:14
(UTC+00:00)
Language:

Intelsat V F2 - Orbit

View from above orbital plane
View from above orbital plane
View from above satellite
View from above satellite

Ground track
Ground track

The orbit data is extracted from the following two-line orbital elements,

1 12089U 80098A   18018.31229826 -.00000187 +00000-0 +00000-0 0  9993
2 12089 014.9850 352.2663 0016029 269.4610 273.5849 00.98890162103344
Epoch (UTC): 18 January 2018 07:29:42
Eccentricity: 0.0016029
inclination: 14.9850°
perigee height: 36110 km
apogee height: 36246 km
right ascension of ascending node: 352.2663°
argument of perigee: 269.4610°
revolutions per day: 0.98890162
mean anomaly at epoch: 273.5849°
orbit number at epoch: 10334

The dashed part of the orbit path shows where the satellite is in the earth's shadow,  

DLR